Flag for China Weather past 2 weeks in Nanning, Guangxi, China

Now
77 °F

Clear.


Feels Like: 78 °F
Forecast: 78 / 94 °F
Wind: 1 mph from Northeast

Location: Nanning Airport

Current Time: Jul 30, 2014 at 6:25:50 AM

Latest Report: Jul 30, 2014 at 6:00 AM


Visibility: 10 mi

Pressure: 29.68 "Hg

Humidity: 94%

Dew point: 75 °F

Location of NanningLocation

Historic Weather in Nanning — Graph

°F

Nanning temperature yesterday

Maximum temperature yesterday: 90 °F (at 1:00 PM)
Minimum temperature yesterday: 75 °F (at 6:00 AM)
Average temperature yesterday: 82 °F

Past Weeks' High & Low Weather Summary

 TemperatureHumidityPressure
High97 °F (Jul 23, 4:00 PM)100% (Jul 20, 10:00 AM)29.83 "Hg (Jul 20, 10:00 AM)
Low75 °F (Jul 16, 7:00 AM)44% (Jul 24, 6:00 PM)29.21 "Hg (Jul 19, 8:00 AM)
Average82 °F81%29.66 "Hg
* Reported Jul 15 5:00 AM — Jul 30 5:00 AM, Nanning, Weather by CustomWeather, © 2014

Note: Actual official high and low records may vary slightly from our data, if they occured in-between our weather recording intervals... More about our weather records

Advertising

Nanning weather history for previous 24 hours

 ConditionsComfort  
Time TempWeatherWind HumidityBarometerVisibility
5:00 AM
Jul 30
77 °FClear.1 mph94%29.71 "Hg10 mi
4:00 AM79 °FClear.1 mph89%29.71 "Hg10 mi
3:00 AM79 °FClear.1 mph89%29.71 "Hg10 mi
2:00 AM79 °FClear.1 mph94%29.71 "Hg10 mi
1:00 AM81 °FPassing clouds.No wind84%29.71 "HgN/A
12:00 AM81 °FPassing clouds.1 mph84%29.71 "HgN/A
11:00 PM
Jul 29
81 °FPassing clouds.1 mph89%29.71 "HgN/A
10:00 PM81 °FPassing clouds.3 mph89%29.71 "HgN/A
9:00 PM81 °FPassing clouds.3 mph89%29.68 "HgN/A
8:00 PM82 °FPassing clouds.3 mph84%29.65 "HgN/A
7:00 PM84 °FPassing clouds.3 mph79%29.62 "HgN/A
6:00 PM84 °FPassing clouds.3 mph79%29.62 "HgN/A
5:00 PM84 °FScattered clouds.6 mph79%29.65 "HgN/A
4:00 PM88 °FScattered clouds.3 mph66%29.65 "HgN/A
3:00 PM88 °FScattered clouds.8 mph62%29.65 "HgN/A
2:00 PM90 °FScattered clouds.6 mph63%29.68 "HgN/A
1:00 PM90 °FScattered clouds.6 mph63%29.71 "HgN/A
12:00 PM88 °FScattered clouds.3 mph66%29.71 "HgN/A
11:00 AM84 °FScattered clouds.3 mph74%29.74 "HgN/A
10:00 AM82 °FScattered clouds.1 mph79%29.74 "HgN/A
9:00 AM81 °FScattered clouds.3 mph84%29.74 "Hg4 mi
8:00 AM79 °FPassing clouds.3 mph89%29.71 "Hg4 mi
7:00 AM77 °FFog.1 mph94%29.71 "Hg3 mi
6:00 AM75 °FFog.3 mph94%29.68 "Hg3 mi
Weather by CustomWeather, © 2014

See weather overviewHow to use our weather pages